Погода в Сакмаре

Россия / Оренбургская область     51°59′30″N   55°19′30″E
темп.,
°C
ветер,
м/с
пор.,
м/с
влажн.,
%
обл.,
%
осадки,
мм/ч
давл.,
гПа
погр.,
м
27 июля, вт
вт2723:00+16сз33401 0.0 102037
02:00+15сз334432 0.0 102039
05:00+13ссз33484 0.0 102031
08:00+18ссз35395 0.0 1020277
11:00+24ссз46275 0.0 10192197
14:00+26ссз552449 0.0 10173063
17:00+27сз552213 0.0 10153084
20:00+25с57305 0.0 1015499
28 июля, ср
ср2823:00+18сз344826 0.0 101544
02:00+17ссз33585 0.0 101528
05:00+14зсз227554 0.3 101415
08:00+18ссз356247 0.1 1015290
11:00+24ссз563781 0.1 10141816
14:00+27ссз672746 0.0 10133031
17:00+25сз57324 0.0 10131920
20:00+25сз463193 0.0 1013829
29 июля, чт
чт2923:00+19сз22460 0.0 101317
02:00+16с22440 0.0 101418
05:00+14ссз11480 0.0 101411
08:00+20с01350 0.0 1014161
11:00+26з35263 0.0 10142213
14:00+29зсз55196 0.0 10132726
17:00+30з4520100 0.0 10113004
20:00+27юз2228100 0.0 101018
30 июля, пт
пт3023:00+24ю3734100 0.0 1010122
02:00+25ююз71432100 0.0 1008513
05:00+26юз6143094 0.0 1007663
08:00+22зюз51361100 0.7 1008523
11:00+29зюз81141100 1.0 10081639
14:00+33з8123090 0.0 10073290
17:00+32зсз9122898 0.1 10073165
20:00+30зсз473596 0.0 1007436
31 июля, сб
сб3123:00+22зсз236098 0.1 100922
02:00+20з118198 2.4 101016
05:00+21ююз358079 2.6 1010113
08:00+21с1183100 0.5 101127
11:00+21всв4682100 0.5 1011291
14:00+28юв235018 0.0 10101130
17:00+29с324712 0.3 1009478
20:00+29ссз34480 0.0 1009352